Weather History for KSHL - October, 2013

Change the Weather History Date:

Wednesday, October 30, 2013

  Actual Average (WUND) Record (WUND)
Temperature  
Mean Temperature 44 °F -  
Max Temperature 50 °F - - (-1)
Min Temperature 39 °F - - (-1)
Degree Days  
Heating Degree Days 20    
Moisture  
Dew Point 46 °F    
Average Humidity 100    
Maximum Humidity 100    
Minimum Humidity 100    
Precipitation  
Precipitation 0.01 in - - ()
Sea Level Pressure  
Sea Level Pressure 29.85 in    
Wind  
Wind Speed 5 mph (NNW)    
Max Wind Speed 17 mph    
Max Gust Speed 24 mph    
Visibility 2 miles    
Events Fog , Rain    
Averages and records for this station are not official NWS values.
T = Trace of Precipitation, MM = Missing Value Source: NWS Daily Summary

Daily Weather History Graph

Daily Weather History Graph

Search for Another Location

Airport or City:

Trip Planner

Search our weather history database for the weather conditions in past years. The results will help you decide how hot, cold, wet, or windy it might be!

Date:

Astronomy

Oct. 30, 2013 Rise Set
Actual Time 7:56 AM CDT 6:17 PM CDT
Civil Twilight 7:26 AM CDT 6:46 PM CDT
Nautical Twilight 6:52 AM CDT 7:20 PM CDT
Astronomical Twilight 6:19 AM CDT 7:53 PM CDT
Moon 3:39 AM CDT (10/30) 4:08 PM CDT (10/30)
Length of Visible Light 11h 20m
Length of Day
10h 21m
Waning Crescent, 17% of the Moon is Illuminated
Oct 30
Waning Crescent
Nov 3
New
Nov 9
First Quarter
Nov 17
Full
Nov 25
Last Quarter

Hourly Weather History & Observations

Time (CDT) Temp. Windchill Dew Point Humidity Pressure Visibility Wind Dir Wind Speed Gust Speed Precip Events Conditions
12:15 AM 46.4 °F 45.2 °F 46.4 °F 100% 30.00 in 0.8 mi NE 3.5 mph - N/A   Light Drizzle
12:35 AM 46.4 °F 43.5 °F 46.4 °F 100% 29.99 in 0.8 mi NE 5.8 mph - N/A Rain Light Rain
12:55 AM 46.4 °F 43.5 °F 46.4 °F 100% 29.99 in 1.0 mi ENE 5.8 mph - 0.01 in Rain Light Rain
1:15 AM 46.4 °F 44.3 °F 46.4 °F 100% 29.98 in 1.2 mi ENE 4.6 mph - N/A   Overcast
1:35 AM 46.4 °F 44.3 °F 46.4 °F 100% 29.99 in 1.2 mi NE 4.6 mph - N/A   Overcast
1:55 AM 46.4 °F 43.5 °F 46.4 °F 100% 29.98 in 1.2 mi NE 5.8 mph - N/A   Overcast
2:15 AM 44.6 °F 40.7 °F 44.6 °F 100% 29.97 in 1.0 mi NE 6.9 mph - N/A   Overcast
2:35 AM 46.4 °F 43.5 °F 46.4 °F 100% 29.97 in 1.5 mi NE 5.8 mph - N/A   Overcast
2:55 AM 44.6 °F 41.4 °F 44.6 °F 100% 29.97 in 1.2 mi NE 5.8 mph - N/A   Overcast
3:15 AM 44.6 °F 41.4 °F 44.6 °F 100% 29.97 in 2.5 mi ENE 5.8 mph - N/A   Overcast
3:35 AM 44.6 °F 40.7 °F 44.6 °F 100% 29.96 in 1.8 mi ENE 6.9 mph - N/A   Overcast
3:55 AM 44.6 °F 41.4 °F 44.6 °F 100% 29.95 in 1.2 mi ENE 5.8 mph - N/A   Overcast
4:15 AM 44.6 °F 40.7 °F 44.6 °F 100% 29.94 in 1.8 mi ENE 6.9 mph - N/A   Overcast
4:35 AM 44.6 °F 41.4 °F 44.6 °F 100% 29.94 in 1.5 mi ENE 5.8 mph - N/A   Overcast
4:55 AM 44.6 °F 40.2 °F 44.6 °F 100% 29.92 in 2.0 mi ENE 8.1 mph - N/A   Overcast
5:15 AM 44.6 °F 41.4 °F 44.6 °F 100% 29.92 in 2.0 mi ENE 5.8 mph - N/A   Overcast
5:35 AM 46.4 °F 44.3 °F 46.4 °F 100% 29.92 in 1.5 mi East 4.6 mph - N/A   Overcast
5:55 AM 46.4 °F 44.3 °F 46.4 °F 100% 29.92 in 0.8 mi East 4.6 mph - N/A   Overcast
6:15 AM 46.4 °F 44.3 °F 46.4 °F 100% 29.91 in 0.2 mi ENE 4.6 mph - N/A Fog Fog
6:35 AM 46.4 °F 45.2 °F 46.4 °F 100% 29.91 in 0.2 mi ENE 3.5 mph - N/A Fog Fog
6:55 AM 46.4 °F 44.3 °F 46.4 °F 100% 29.90 in 0.2 mi ENE 4.6 mph - N/A Fog Fog
7:15 AM 46.4 °F 44.3 °F 46.4 °F 100% 29.91 in 0.2 mi East 4.6 mph - N/A Fog Fog
7:35 AM 46.4 °F - 46.4 °F 100% 29.91 in 0.2 mi Calm Calm - N/A Fog Fog
7:55 AM 46.4 °F - 46.4 °F 100% 29.92 in 0.2 mi Calm Calm - N/A   Light Drizzle
8:15 AM 46.4 °F - 46.4 °F 100% 29.94 in 0.2 mi Calm Calm - N/A Fog Fog
8:35 AM 46.4 °F - 46.4 °F 100% 29.96 in 0.2 mi Calm Calm - N/A Fog Fog
8:55 AM 46.4 °F - 46.4 °F 100% 29.95 in 0.2 mi Calm Calm - N/A Fog Fog
9:15 AM 46.4 °F 41.9 °F 46.4 °F 100% 29.89 in 0.2 mi East 9.2 mph - N/A Fog Fog
9:35 AM 46.4 °F 39.5 °F 46.4 °F 100% 29.81 in 0.2 mi ESE 17.3 mph 24.2 mph N/A Fog Fog
9:55 AM 48.2 °F - 48.2 °F 100% 29.79 in 0.2 mi East 11.5 mph - N/A Fog Fog
10:15 AM 50.0 °F - 50.0 °F 100% 29.78 in 0.2 mi ESE 12.7 mph - N/A Fog Fog
10:35 AM 50.0 °F - 50.0 °F 100% 29.83 in 0.2 mi Variable 3.5 mph 11.5 mph N/A Fog Fog
10:55 AM 50.0 °F - 50.0 °F 100% 29.85 in 0.2 mi Calm Calm - N/A Fog Fog
11:15 AM 50.0 °F - 50.0 °F 100% 29.86 in 0.2 mi SW 3.5 mph - N/A Fog Fog
11:35 AM 50.0 °F - 50.0 °F 100% 29.86 in 0.2 mi Calm Calm - N/A Fog Fog
11:55 AM 50.0 °F - 50.0 °F 100% 29.86 in 0.2 mi West 4.6 mph - N/A Fog Fog
12:15 PM 48.2 °F - 48.2 °F 100% 29.87 in 0.2 mi West 8.1 mph - N/A Fog Fog
12:35 PM 48.2 °F - 48.2 °F 100% 29.86 in 0.2 mi NW 4.6 mph - N/A Fog Fog
12:55 PM 48.2 °F - 48.2 °F 100% 29.83 in 0.2 mi Variable 4.6 mph - N/A Fog Fog
1:15 PM 48.2 °F - 48.2 °F 100% 29.82 in 0.5 mi NNE 4.6 mph - N/A Fog Fog
1:35 PM 48.2 °F - 48.2 °F 100% 29.80 in 0.5 mi Variable 3.5 mph - N/A Fog Fog
1:55 PM 48.2 °F - 48.2 °F 100% 29.81 in 1.0 mi NW 4.6 mph - N/A   Overcast
2:15 PM 48.2 °F - 48.2 °F 100% 29.78 in 0.8 mi North 5.8 mph - N/A   Overcast
2:35 PM 48.2 °F - 48.2 °F 100% 29.79 in 0.8 mi WNW 4.6 mph - N/A   Overcast
2:55 PM 48.2 °F - 48.2 °F 100% 29.78 in 1.0 mi NW 5.8 mph - N/A   Overcast
3:15 PM 48.2 °F - 48.2 °F 100% 29.77 in 2.5 mi NNW 3.5 mph - N/A   Overcast
3:35 PM 48.2 °F - 48.2 °F 100% 29.76 in 5.0 mi Calm Calm - N/A   Overcast
3:55 PM 48.2 °F - 48.2 °F 100% 29.77 in 1.2 mi West 4.6 mph - N/A   Overcast
4:15 PM 48.2 °F - 48.2 °F 100% 29.77 in 0.8 mi West 5.8 mph - N/A   Light Drizzle
4:35 PM 48.2 °F - 48.2 °F 100% 29.77 in 1.0 mi WSW 5.8 mph - N/A   Light Drizzle
4:55 PM 48.2 °F - 48.2 °F 100% 29.77 in 1.2 mi West 4.6 mph - N/A   Light Drizzle
5:15 PM 46.4 °F 43.5 °F 46.4 °F 100% 29.77 in 1.8 mi West 5.8 mph - N/A   Overcast
5:35 PM 46.4 °F 44.3 °F 46.4 °F 100% 29.77 in 5.0 mi West 4.6 mph - N/A   Overcast
5:55 PM 46.4 °F 43.5 °F 46.4 °F 100% 29.76 in 6.0 mi WNW 5.8 mph - N/A   Overcast
6:15 PM 46.4 °F 42.4 °F 46.4 °F 100% 29.76 in 4.0 mi West 8.1 mph - N/A   Overcast
7:55 PM 42.8 °F 37.0 °F 42.8 °F 100% 29.77 in 5.0 mi West 10.4 mph - N/A   Overcast
8:15 PM 42.8 °F 38.0 °F 42.8 °F 100% 29.77 in 7.0 mi West 8.1 mph - N/A   Overcast
8:35 PM 41.0 °F 34.7 °F 41.0 °F 100% 29.76 in 7.0 mi WNW 10.4 mph - N/A   Overcast
8:55 PM 41.0 °F 35.2 °F 41.0 °F 100% 29.76 in 5.0 mi WNW 9.2 mph - N/A   Overcast
9:15 PM 41.0 °F 34.7 °F 41.0 °F 100% 29.75 in 6.0 mi WNW 10.4 mph - N/A   Overcast
9:35 PM 41.0 °F 35.2 °F 41.0 °F 100% 29.74 in 5.0 mi WNW 9.2 mph - N/A   Overcast
9:55 PM 41.0 °F 35.8 °F 41.0 °F 100% 29.74 in 3.0 mi West 8.1 mph - N/A   Overcast
10:15 PM 41.0 °F 35.2 °F 41.0 °F 100% 29.75 in 4.0 mi WNW 9.2 mph - N/A   Overcast
10:35 PM 41.0 °F 36.4 °F 41.0 °F 100% 29.75 in 4.0 mi WNW 6.9 mph - N/A   Overcast
10:55 PM 41.0 °F 36.4 °F 41.0 °F 100% 29.75 in 4.0 mi WNW 6.9 mph 13.8 mph N/A   Overcast
11:15 PM 41.0 °F 33.9 °F 41.0 °F 100% 29.75 in 4.0 mi West 12.7 mph - N/A   Overcast
11:35 PM 39.2 °F 32.0 °F 39.2 °F 100% 29.75 in 6.0 mi WNW 11.5 mph - N/A   Overcast
11:55 PM 39.2 °F 33.6 °F 39.2 °F 100% 29.74 in 7.0 mi West 8.1 mph 13.8 mph N/A   Overcast